Weather History for Santorini Island, Greece

Change the Weather History Date:

Tuesday, November 13, 2012

  Actual Average Record
Temperature  
Mean Temperature 66 °F -  
Max Temperature 69 °F 65 °F 77 °F (2001)
Min Temperature 62 °F 56 °F 51 °F (2005)
Growing Degree Days 16 (Base 50)    
Moisture  
Dew Point 54 °F    
Average Humidity 64    
Maximum Humidity 77    
Minimum Humidity 56    
Precipitation  
Precipitation 0.00 in - - ()
Sea Level Pressure  
Sea Level Pressure 30.12 in    
Wind  
Wind Speed 10 mph ()    
Max Wind Speed 18 mph    
Max Gust Speed -    
Visibility 6.2 miles    
Events      
Averages and records for this station are not official NWS values.
T = Trace of Precipitation, MM = Missing Value Source: Averaged Metar Reports

Daily Weather History Graph

Daily Weather History Graph

Search for Another Location

Airport:

Trip Planner

Search our weather history database for the weather conditions in past years. The results will help you decide how hot, cold, wet, or windy it might be!

Date:

Astronomy

Nov. 13, 2012 Rise Set
Actual Time 6:53 AM EET 5:10 PM EET
Civil Twilight 6:26 AM EET 5:38 PM EET
Nautical Twilight 5:55 AM EET 6:09 PM EET
Astronomical Twilight 5:24 AM EET 6:39 PM EET
Moon 6:08 AM EET (11/13) 4:48 PM EET (11/13)
Length of Visible Light 11h 12m
Length of Day
10h 17m
Waning Crescent, 0% of the Moon is Illuminated
Nov 13
Waning Crescent
Nov 14
New
Nov 20
First Quarter
Nov 28
Full
Dec 6
Last Quarter

Hourly Weather History & Observations

Time (EET) Temp. Dew Point Humidity Pressure Visibility Wind Dir Wind Speed Gust Speed Precip Events Conditions
6:50 AM 62.6 °F 53.6 °F 72% 30.12 in 6.2 mi NNW 9.2 mph - N/A   Scattered Clouds
7:20 AM 62.6 °F 53.6 °F 72% 30.12 in 6.2 mi NNW 9.2 mph - N/A   Scattered Clouds
7:50 AM 62.6 °F 55.4 °F 77% 30.15 in 6.2 mi North 9.2 mph - N/A   Scattered Clouds
8:20 AM 62.6 °F 55.4 °F 77% 30.15 in 6.2 mi North 9.2 mph - N/A   Scattered Clouds
8:50 AM 66.2 °F 55.4 °F 68% 30.15 in 6.2 mi NNW 13.8 mph - N/A   Scattered Clouds
9:20 AM 66.2 °F 55.4 °F 68% 30.15 in 6.2 mi NNW 13.8 mph - N/A   Scattered Clouds
9:50 AM 66.2 °F 53.6 °F 64% 30.15 in 6.2 mi North 13.8 mph - N/A   Scattered Clouds
10:20 AM 66.2 °F 53.6 °F 64% 30.15 in 6.2 mi North 13.8 mph - N/A   Scattered Clouds
10:50 AM 68.0 °F 53.6 °F 60% 30.15 in - North 13.8 mph - N/A   Clear
11:20 AM 68.0 °F 53.6 °F 60% 30.15 in - North 13.8 mph - N/A   Clear
11:50 AM 68.0 °F 53.6 °F 60% 30.12 in - NW 8.1 mph - N/A   Clear
12:20 PM 68.0 °F 53.6 °F 60% 30.12 in - NW 8.1 mph - N/A   Clear
12:50 PM 68.0 °F 55.4 °F 64% 30.12 in - NNE 10.4 mph - N/A   Clear
1:20 PM 68.0 °F 55.4 °F 64% 30.12 in - NNE 10.4 mph - N/A   Clear
1:50 PM 69.8 °F 53.6 °F 56% 30.09 in - NNW 18.4 mph - N/A   Clear
2:20 PM 69.8 °F 53.6 °F 56% 30.09 in - NNW 18.4 mph - N/A   Clear
2:50 PM 68.0 °F 53.6 °F 60% 30.09 in 6.2 mi North 13.8 mph - N/A   Scattered Clouds
3:20 PM 68.0 °F 51.8 °F 56% 30.09 in 6.2 mi North 13.8 mph - N/A   Scattered Clouds
3:50 PM 68.0 °F 51.8 °F 56% 30.09 in 6.2 mi NNW 16.1 mph - N/A   Scattered Clouds
4:20 PM 66.2 °F 53.6 °F 64% 30.09 in 6.2 mi North 11.5 mph - N/A   Scattered Clouds
4:50 PM 66.2 °F 53.6 °F 64% 30.09 in 6.2 mi North 11.5 mph - N/A   Scattered Clouds
5:20 PM 64.4 °F 53.6 °F 68% 30.09 in 6.2 mi North 13.8 mph - N/A   Scattered Clouds
5:50 PM 64.4 °F 53.6 °F 68% 30.09 in 6.2 mi North 13.8 mph - N/A   Scattered Clouds
6:20 PM 64.4 °F 53.6 °F 68% 30.09 in 6.2 mi NNW 13.8 mph - N/A   Scattered Clouds